sat.trackr.live / text

‹ back to catalog

STARLINK-32373

NORAD 60923 · 2024-154W

PAYLOAD ACTIVE UNKNOWN

§ Identity

Operator
Country
US
Launch date
2024-08-31
Launch site
AFETR
Launch vehicle
Mass (kg)
RCS (m²)

Purposes: comms

External: N2YO · Heavens-Above · Gunter

§ Orbital elements

Epoch: 2026-09-21T22:33:19.620288Z

Period
93.85 min
Inclination
53.1606°
Eccentricity
0.0001297
Mean motion
15.34391008 rev/d
Perigee alt
461.8 km
Apogee alt
463.6 km
Semi-major
6,840.9 km
B*
5.6290e-6
RAAN
90.7256°
Arg perigee
91.6313°
Mean anomaly
268.4839°
Rev number
11,641

§ Raw data

STARLINK-323731 60923U 24154W   26264.93981042 -.00000186  00000+0  56290-5 0  99942 60923  53.1606  90.7256 0001297  91.6313 268.4839 15.34391008116411

JSON: /api/v1/satellites/60923 · /tle

For live sub-satellite position, see the globe view (requires WebGL).

§ Visibility from observer

Set your observer location to see the next 7 days of passes ≥ 10°. The values pass through the URL so the page stays shareable.

No JS? Fill the form by hand. The geolocation button needs JavaScript.